Location: Saint-Maurice-d�Ard�che
(44.5216°N, 4.4002°E)
Time: 21:39:32
(UTC+00:00)

CSL-04 Rocket - Pass Details

Date: 30 March 2020
Orbit: 807 x 859 km, 98.9° (Epoch: 23 May)

Event Time Altitude Azimuth Distance (km) Brightness Sun altitude
Rises 18:29:35 0° 168° (SSE) 3,335 6.6 -4.7°
Reaches altitude 10° 18:31:55 10° 170° (S) 2,400 5.9 -5.1°
Maximum altitude 18:37:14 77° 256° (WSW) 837 3.9 -6.0°
Drops below altitude 10° 18:42:32 10° 343° (NNW) 2,400 6.5 -6.9°
Sets 18:44:53 0° 345° (NNW) 3,335 7.2 -7.3°
